CAPE
5 6 2 1 1 1 1 1 0 0 0 0 0 0 0 0 0 0 0 0 0 0 0 0 0 0 0 0 0 0 0 0 0 0 0 0 0 0 0 0 0 0 0 0 0
2 4 1 0 0 0 0 0 0 0 0 0 0 0 0 0 0 0 0 0 0 0 0 0 0 0 0 0 0 0 0 0 0 0 0 0 0 0 0 0 0 0 0 0 0
1 1 0 0 0 0 0 0 0 0 0 0 0 0 0 0 0 0 0 0 0 0 0 0 0 0 0 0 0 0 0 0 0 0 0 0 0 0 0 0 0 0 0 0 0
0 0 0 0 0 0 0 0 0 0 0 0 0 0 0 0 0 0 0 0 0 0 0 0 0 0 0 0 0 0 0 0 0 0 0 0 0 0 0 0 0 0 0 0 0
0 0 0 0 0 0 0 0 0 0 0 0 0 0 0 0 0 0 0 0 0 0 0 0 0 0 0 0 0 0 0 0 0 0 0 0 0 0 0 0 0 0 0 0 0
0 0 0 0 0 0 0 0 0 0 0 0 0 0 0 0 0 0 0 0 0 0 0 0 0 0 0 0 0 0 0 0 0 0 0 0 0 0 0 0 0 0 0 0 0
0 0 0 0 0 0 0 0 0 0 0 0 0 0 0 0 0 0 0 0 0 0 0 0 0 0 0 0 0 0 0 0 0 0 0 0 0 0 0 0 0 0 0 0 0
0 0 0 0 0 0 0 0 0 0 0 0 0 0 0 0 0 0 0 0 0 0 0 0 0 0 0 0 0 0 0 0 0 0 0 0 0 0 0 0 0 0 0 0 0
0 0 0 0 0 0 0 0 0 0 0 0 0 0 0 0 0 0 0 0 0 0 0 0 0 0 0 0 0 0 0 0 0 0 0 0 0 0 0 0 0 0 0 0 0
0 0 0 0 0 0 0 0 0 0 0 0 0 0 0 0 0 0 0 0 0 0 0 0 0 0 0 0 0 0 0 0 0 0 0 0 0 0 0 0 0 0 0 0 0
0 0 0 0 0 0 0 0 0 0 0 0 0 0 0 0 0 0 0 0 0 0 0 0 0 0 0 0 0 0 0 0 0 0 0 0 0 0 0 0 0 0 0 0 0
0 0 0 0 0 0 0 0 0 0 0 0 0 0 0 0 0 0 0 0 0 0 0 0 0 0 0 0 0 0 0 0 0 0 0 0 0 0 0 0 0 0 0 0 0
0 0 0 0 0 0 0 0 0 0 0 0 0 0 0 0 0 0 0 0 0 0 0 0 0 0 0 0 0 0 0 0 0 0 0 0 0 0 0 0 0 0 0 0 0
0 0 0 0 0 0 0 0 0 0 0 0 0 0 0 0 0 0 0 0 0 0 0 0 0 0 0 0 0 0 0 0 0 0 0 0 0 0 0 0 0 0 0 0 0
0 0 0 0 0 0 0 0 0 0 0 0 0 0 0 0 0 0 0 0 0 0 0 0 0 0 0 0 0 0 0 0 0 0 0 0 0 0 0 0 0 0 0 0 0
1 0 0 0 0 0 0 0 0 0 0 0 0 0 0 0 0 0 0 0 0 0 0 0 0 0 0 0 0 0 0 0 0 0 0 0 0 0 0 0 0 0 0 0 0
0 0 0 0 0 0 0 0 0 0 0 0 0 0 0 0 0 0 0 0 0 0 0 0 0 0 0 0 0 0 0 0 0 0 0 0 0 0 0 0 0 0 0 0 0
0 0 0 0 0 0 0 0 0 0 0 0 0 0 0 0 0 0 0 0 0 0 0 0 0 0 0 0 0 0 0 0 0 0 0 0 0 0 0 0 0 0 0 0 0
1 0 0 0 0 0 0 0 0 0 0 0 0 0 0 0 0 0 0 0 0 0 0 0 0 0 0 0 0 0 0 0 0 0 0 0 0 0 0 0 0 0 0 0 0
0 0 0 0 0 0 0 0 0 0 0 0 0 0 0 0 0 0 0 0 0 0 0 0 0 0 0 0 0 0 0 0 0 0 0 0 0 0 0 0 0 0 0 0 0
0 0 1 0 0 0 0 0 0 0 0 0 0 0 0 0 0 0 0 0 0 0 0 0 0 0 0 0 0 0 0 0 0 0 0 0 0 0 0 0 0 0 0 0 0
0 0 0 0 0 0 0 0 0 0 0 0 0 0 0 0 0 0 0 0 0 0 0 0 0 0 0 0 0 0 0 0 0 0 0 0 0 0 0 0 0 0 0 0 0
0 0 0 0 0 0 0 0 0 0 0 0 0 0 0 0 0 0 0 0 0 0 0 0 0 0 0 0 0 0 0 0 0 0 0 0 0 0 0 0 0 0 0 0 1
0 0 1 0 1 0 0 0 0 0 0 0 0 0 0 0 0 0 0 0 0 0 0 0 0 0 0 0 0 0 0 0 0 0 0 0 0 0 0 0 0 0 0 0 2
0 1 0 0 2 0 0 0 0 0 0 0 0 0 0 0 0 0 0 0 0 0 0 0 0 0 0 0 0 0 0 0 0 0 0 0 0 0 0 0 0 0 0 0 1
7 0 1 0 0 0 0 0 0 0 0 0 0 0 0 0 0 0 0 0 0 0 0 0 0 0 0 0 0 0 0 0 0 0 0 0 0 0 0 0 0 0 0 0 1
9 0 10 2 0 0 0 0 0 0 0 0 0 0 0 0 0 0 0 0 0 0 0 0 0 0 0 0 0 0 0 0 0 0 0 0 0 0 0 0 0 0 0 0 1
CIN
-0 -0 -0 -0 -0 -0 -0 -0 -0 -0 -0 -0 -0 -0 -0 -0 -0 -0 -0 -0 -0 -0 -0 -0 -0 -0 -0 -0 -0 -0 -0 -0 -0 -0 -0 -0 -0 -0 -0 -0 -0 -0 -0 -0 -0
-0 -0 -0 -0 -0 -0 -0 -0 -0 -0 -0 -0 -0 -0 -0 -0 -0 -0 -0 -0 -0 -0 -0 -0 -0 -0 -0 -0 -0 -0 -0 -0 -0 -0 -0 -0 -0 -0 -0 -0 -0 -0 -0 -0 -0
-0 -0 -0 -0 -0 -0 -0 -0 -0 -0 -0 -0 -0 -0 -0 -0 -0 -0 -0 -0 -0 -0 -0 -0 -0 -0 -0 -0 -0 -0 -0 -0 -0 -0 -0 -0 -0 -0 -0 -0 -0 -0 -0 -0 -0
-0 -0 -0 -0 -0 -0 -0 -0 -0 -0 -0 -0 -0 -0 -0 -0 -0 -0 -0 -0 -0 -0 -0 -0 -0 -0 -0 -0 -0 -0 -0 -0 -0 -0 -0 -0 -0 -0 -0 -0 -0 -0 -0 -0 -0
-0 -0 -0 -0 -0 -0 -0 -0 -0 -0 -0 -0 -0 -0 -0 -0 -0 -0 -0 -0 -0 -0 -0 -0 -0 -0 -0 -0 -0 -0 -0 -0 -0 -0 -0 -0 -0 -0 -0 -0 -0 -0 -0 -0 -0
-0 -0 -0 -0 -0 -0 -0 -0 -0 -0 -0 -0 -0 -0 -0 -0 -0 -0 -0 -0 -0 -0 -0 -0 -0 -0 -0 -0 -0 -0 -0 -0 -0 -0 -0 -0 -0 -0 -0 -0 -0 -0 -0 -0 -0
-0 -0 -0 -0 -0 -0 -0 -0 -0 -0 -0 -0 -0 -0 -0 -0 -0 -0 -0 -0 -0 -0 -0 -0 -0 -0 -0 -0 -0 -0 -0 -0 -0 -0 -0 -0 -0 -0 -0 -0 -0 -0 -0 -0 -0
-0 -0 -0 -0 -0 -0 -0 -0 -0 -0 -0 -0 -0 -0 -0 -0 -0 -0 -0 -0 -0 -0 -0 -0 -0 -0 -0 -0 -0 -0 -0 -0 -0 -0 -0 -0 -0 -0 -0 -0 -0 -0 -0 -0 -0
-0 -0 -0 -0 -0 -0 -0 -0 -0 -0 -0 -0 -0 -0 -0 -0 -0 -0 -0 -0 -0 -0 -0 -0 -0 -0 -0 -0 -0 -0 -0 -0 -0 -0 -0 -0 -0 -0 -0 -0 -0 -0 -0 -0 -0
-0 -0 -0 -0 -0 -0 -0 -0 -0 -0 -0 -0 -0 -0 -0 -0 -0 -0 -0 -0 -0 -0 -0 -0 -0 -0 -0 -0 -0 -0 -0 -0 -0 -0 -0 -0 -0 -0 -0 -0 -0 -0 -0 -0 -0
-0 -0 -0 -0 -0 -0 -0 -0 -0 -0 -0 -0 -0 -0 -0 -0 -0 -0 -0 -0 -0 -0 -0 -0 -0 -0 -0 -0 -0 -0 -0 -0 -0 -0 -0 -0 -0 -0 -0 -0 -0 -0 -0 -0 -0
-0 -0 -0 -0 -0 -0 -0 -0 -0 -0 -0 -0 -0 -0 -0 -0 -0 -0 -0 -0 -0 -0 -0 -0 -0 -0 -0 -0 -0 -0 -0 -0 -0 -0 -0 -0 -0 -0 -0 -0 -0 -0 -0 -0 -0
-0 -0 -0 -0 -0 -0 -0 -0 -0 -0 -0 -0 -0 -0 -0 -0 -0 -0 -0 -0 -0 -0 -0 -0 -0 -0 -0 -0 -0 -0 -0 -0 -0 -0 -0 -0 -0 -0 -0 -0 -0 -0 -0 -0 -0
-0 -0 -0 -0 -0 -0 -0 -0 -0 -0 -0 -0 -0 -0 -0 -0 -0 -0 -0 -0 -0 -0 -0 -0 -0 -0 -0 -0 -0 -0 -0 -0 -0 -0 -0 -0 -0 -0 -0 -0 -0 -0 -0 -0 -0
-0 -0 -0 -0 -0 -0 -0 -0 -0 -0 -0 -0 -0 -0 -0 -0 -0 -0 -0 -0 -0 -0 -0 -0 -0 -0 -0 -0 -0 -0 -0 -0 -0 -0 -0 -0 -0 -0 -0 -0 -0 -0 -0 -0 -0
-0 -0 -0 -0 -0 -0 -0 -0 -0 -0 -0 -0 -0 -0 -0 -0 -0 -0 -0 -0 -0 -0 -0 -0 -0 -0 -0 -0 -0 -0 -0 -0 -0 -0 -0 -0 -0 -0 -0 -0 -0 -0 -0 -0 -0
-0 -0 -0 -0 -0 -0 -0 -0 -0 -0 -0 -0 -0 -0 -0 -0 -0 -0 -0 -0 -0 -0 -0 -0 -0 -0 -0 -0 -0 -0 -0 -0 -0 -0 -0 -0 -0 -0 -0 -0 -0 -0 -0 -0 -0
-0 -0 -0 -0 -0 -0 -0 -0 -0 -0 -0 -0 -0 -0 -0 -0 -0 -0 -0 -0 -0 -0 -0 -0 -0 -0 -0 -0 -0 -0 -0 -0 -0 -0 -0 -0 -0 -0 -0 -0 -0 -0 -0 -0 -0
-0 -0 -0 -0 -0 -0 -0 -0 -0 -0 -0 -0 -0 -0 -0 -0 -0 -0 -0 -0 -0 -0 -0 -0 -0 -0 -0 -0 -0 -0 -0 -0 -0 -0 -0 -0 -0 -0 -0 -0 -0 -0 -0 -0 -0
-0 -0 -0 -0 -0 -0 -0 -0 -0 -0 -0 -0 -0 -0 -0 -0 -0 -0 -0 -0 -0 -0 -0 -0 -0 -0 -0 -0 -0 -0 -0 -0 -0 -0 -0 -0 -0 -0 -0 -0 -0 -0 -0 -0 -0
-0 -0 -0 -0 -0 -0 -0 -0 -0 -0 -0 -0 -0 -0 -0 -0 -0 -0 -0 -0 -0 -0 -0 -0 -0 -0 -0 -0 -0 -0 -0 -0 -0 -0 -0 -0 -0 -0 -0 -0 -0 -0 -0 -0 -0
-0 -0 -0 -0 -0 -0 -0 -0 -0 -0 -0 -0 -0 -0 -0 -0 -0 -0 -0 -0 -0 -0 -0 -0 -0 -0 -0 -0 -0 -0 -0 -0 -0 -0 -0 -0 -0 -0 -0 -0 -0 -0 -0 -0 -0
-0 -0 -0 -0 -0 -0 -0 -0 -0 -0 -0 -0 -0 -0 -0 -0 -0 -0 -0 -0 -0 -0 -0 -0 -0 -0 -0 -0 -0 -0 -0 -0 -0 -0 -0 -0 -0 -0 -0 -0 -0 -0 -0 -0 -0
-23 -0 -0 -0 -0 -0 -0 -0 -0 -0 -0 -0 -0 -0 -0 -0 -0 -0 -0 -0 -0 -0 -0 -0 -0 -0 -0 -0 -0 -0 -0 -0 -0 -0 -0 -0 -0 -0 -0 -0 -0 -0 -0 -0 -0
-0 -9 -0 -0 -0 -0 -0 -0 -0 -0 -0 -0 -0 -0 -0 -0 -0 -0 -0 -0 -0 -0 -0 -0 -0 -0 -0 -0 -0 -0 -0 -0 -0 -0 -0 -0 -0 -0 -0 -0 -0 -0 -0 -0 -0
-5 -0 -0 -0 -0 -0 -0 -0 -0 -0 -0 -0 -0 -0 -0 -0 -0 -0 -0 -0 -0 -0 -0 -0 -0 -0 -0 -0 -0 -0 -0 -0 -0 -0 -0 -0 -0 -0 -0 -0 -0 -0 -0 -0 -0
-2 -15 -15 -0 -0 -0 -0 -0 -0 -0 -0 -0 -0 -0 -0 -0 -0 -0 -0 -0 -0 -0 -0 -0 -0 -0 -0 -0 -0 -0 -0 -0 -0 -0 -0 -0 -0 -0 -0 -0 -0 -0 -0 -0 -0
Wind_Speed
28 28 28 27 26 25 25 25 24 22 20 20 18 18 16 14 12 16 16 12 11 12 13 10 17 17 17 16 16 15 14 13 12 13 12 18 18 16 18 16 19 15 22 15 22
27 27 27 26 25 25 24 24 23 22 20 19 18 17 16 15 13 17 15 15 13 12 16 18 18 18 17 16 14 14 13 14 16 13 10 18 19 24 22 26 20 19 19 23 26
27 27 26 26 25 24 24 24 23 22 20 19 18 17 15 16 14 17 19 17 15 14 17 17 17 17 16 16 16 14 14 14 16 16 17 17 21 25 21 20 18 25 27 32 31
26 26 26 25 24 23 23 23 22 21 20 18 18 17 16 14 14 18 19 18 17 19 18 17 17 17 16 16 16 15 16 17 17 19 20 20 21 24 17 18 22 24 25 23 26
25 26 25 24 23 23 22 22 22 20 19 18 18 17 15 14 16 19 19 21 20 22 20 18 18 18 17 16 16 15 18 19 17 17 16 18 22 23 19 19 20 19 21 25 25
26 26 25 24 24 23 22 22 21 20 19 19 18 18 15 15 17 21 20 21 21 21 21 19 18 17 18 17 17 18 18 16 16 19 20 24 26 25 21 23 24 25 25 26 28
26 26 26 25 24 23 23 22 21 20 19 18 18 17 15 15 17 21 21 19 20 20 19 20 20 18 18 17 18 19 22 23 18 20 22 26 27 23 27 30 35 37 37 35 30
27 27 26 26 25 24 24 24 22 19 19 18 19 17 16 16 18 22 22 17 20 18 18 18 19 20 20 18 18 22 20 28 24 24 25 29 33 26 29 32 33 34 33 30 27
27 27 26 27 26 26 26 25 24 22 21 19 17 17 17 16 18 22 21 19 20 17 17 17 18 20 22 21 21 25 26 28 32 32 28 27 31 27 33 30 28 28 30 23 23
26 27 26 27 27 27 27 26 20 20 17 17 17 16 17 19 19 22 19 18 18 18 18 18 19 19 24 24 25 26 27 28 30 28 32 29 26 30 30 26 25 25 19 20 20
26 27 27 27 27 27 25 20 19 18 18 17 17 17 18 21 17 21 20 18 17 18 18 19 19 21 22 23 22 23 26 28 27 26 36 30 32 32 30 26 20 20 17 19 20
26 27 28 27 27 26 21 18 18 18 20 18 17 16 17 18 18 21 20 16 17 19 18 19 18 19 20 21 23 26 27 27 26 29 29 31 35 29 27 22 20 19 21 22 22
25 25 27 27 27 20 19 18 19 20 20 19 18 18 18 18 16 20 19 17 17 18 21 18 17 19 21 24 27 28 24 26 28 32 25 34 32 32 23 22 21 24 22 26 29
24 24 26 28 19 21 19 20 20 20 22 19 17 17 16 15 16 17 18 16 17 18 18 19 18 20 21 22 26 27 23 29 29 32 33 30 37 25 20 29 22 24 25 29 36
24 23 24 22 22 20 20 21 20 19 26 17 16 15 14 14 16 17 18 18 16 16 17 18 18 20 20 22 25 21 29 26 23 25 28 25 29 24 23 26 26 27 29 36 40
23 21 24 20 20 20 21 21 20 22 24 16 15 15 14 15 17 18 18 17 17 17 18 18 18 18 20 22 21 28 27 25 23 26 33 25 26 26 26 26 26 27 33 40 46
19 19 19 23 23 23 23 21 24 22 17 17 16 15 15 17 17 18 18 18 18 20 19 19 18 18 20 23 22 29 30 29 30 35 34 22 27 21 21 22 25 31 41 44 44
16 16 20 17 21 23 19 18 22 22 17 15 15 14 16 17 19 17 17 19 19 17 19 19 20 18 20 21 23 26 26 28 35 37 34 23 23 25 24 21 26 35 42 43 48
10 20 22 21 20 20 18 24 22 21 18 13 15 18 18 18 17 17 18 17 15 17 18 18 19 19 20 19 22 23 26 22 28 28 33 25 25 25 18 24 33 41 42 47 46
19 17 25 21 21 18 22 27 24 19 17 18 21 17 17 15 16 16 17 16 15 15 17 18 21 19 19 19 21 21 20 25 28 37 41 32 30 23 21 28 30 38 41 44 46
21 26 23 18 18 19 29 27 25 22 19 18 20 20 18 17 16 17 18 18 14 14 17 19 19 20 20 17 18 21 21 21 24 26 35 35 29 16 21 25 29 34 39 42 45
23 32 20 14 26 27 28 26 24 24 22 22 23 22 22 18 19 18 17 18 13 13 16 18 19 19 20 18 17 18 17 18 28 30 25 22 19 9 15 24 30 33 39 40 39
29 28 23 20 35 32 28 27 25 23 22 21 21 20 19 20 21 19 17 17 12 15 14 14 19 22 22 18 20 19 16 15 20 23 20 18 16 15 13 18 25 29 33 37 37
27 31 27 27 31 32 28 28 27 22 23 22 21 19 20 21 20 19 18 17 15 17 16 16 18 17 16 21 22 21 16 11 14 21 19 10 14 16 16 18 19 24 30 34 37
32 37 30 35 36 35 30 28 28 26 24 22 24 23 20 22 22 22 18 18 19 16 17 18 21 19 17 12 15 12 12 10 9 10 13 12 14 14 16 15 17 23 28 32 38
38 36 30 32 27 26 28 35 32 30 26 27 27 22 19 23 22 21 17 19 20 14 15 17 23 23 26 21 19 14 9 7 7 8 10 13 17 16 9 16 20 24 29 32 36
36 33 35 34 34 33 34 30 28 23 29 27 25 21 20 23 21 21 19 19 17 16 15 17 19 22 23 26 29 17 11 9 12 11 8 13 10 12 13 14 20 22 28 30 32
Wind_Direction
336 332 327 325 326 324 326 324 319 312 303 301 296 295 273 261 272 330 331 278 251 258 253 186 86 91 92 101 89 89 72 75 79 63 59 5 352 0 353 353 340 342 329 344 327
330 326 323 319 321 321 318 319 313 304 296 298 291 289 276 258 295 336 302 292 274 265 325 356 43 60 40 57 69 70 61 53 40 44 39 0 355 341 341 331 335 332 323 324 324
323 323 321 318 315 315 313 314 307 299 292 292 290 285 283 267 317 320 308 304 288 279 59 34 27 34 32 38 36 35 33 29 21 20 9 1 352 343 345 343 344 330 324 313 313
316 320 317 313 310 309 309 307 301 297 291 290 291 282 280 290 316 305 307 306 304 327 40 40 26 22 30 26 22 22 14 6 6 4 1 359 356 346 349 340 334 329 326 328 324
310 314 310 307 302 301 301 300 297 293 291 289 290 287 298 321 318 304 308 327 347 2 9 27 19 20 20 20 17 15 5 5 12 10 7 1 351 346 337 341 340 341 337 327 323
311 310 305 303 301 297 293 296 293 288 289 287 288 290 311 321 314 323 324 346 349 4 9 13 17 20 16 14 13 9 5 8 13 2 0 350 345 345 348 347 337 332 328 324 320
311 310 306 301 299 294 290 291 287 284 289 282 287 306 325 334 340 331 332 354 359 2 12 14 13 17 17 13 11 10 360 358 3 0 354 353 347 345 341 337 327 320 319 318 319
310 310 303 301 299 293 289 287 280 276 282 281 291 319 321 344 344 335 339 6 356 16 15 16 12 19 14 19 18 4 7 353 359 354 352 352 343 346 340 334 328 325 323 319 319
308 305 298 302 299 295 291 286 281 284 284 287 317 324 322 346 335 342 359 356 354 14 17 17 14 9 3 3 2 359 353 351 346 348 354 352 342 347 342 340 335 334 333 335 333
322 299 296 304 299 296 294 291 313 315 333 331 321 328 328 325 335 339 359 3 5 358 360 1 0 359 356 1 356 356 354 352 348 353 348 346 339 342 344 343 337 337 348 350 349
317 300 300 304 298 299 306 313 321 324 330 327 327 327 328 327 343 339 346 351 3 357 348 354 354 356 1 4 5 1 355 351 352 356 350 351 343 345 349 349 347 348 354 350 346
318 310 303 299 300 303 314 326 328 324 322 327 329 333 340 336 330 324 326 349 350 344 347 348 355 3 3 3 1 357 355 358 359 358 355 352 347 352 354 2 1 356 349 351 348
314 317 305 299 299 320 333 329 328 324 324 325 324 321 326 332 327 318 326 342 346 341 339 350 0 2 358 357 358 356 2 1 356 354 3 355 356 359 12 12 7 359 355 350 347
306 313 306 297 316 320 325 324 325 328 316 319 325 323 325 332 323 325 324 341 342 341 349 353 360 356 357 3 360 359 5 355 355 357 355 4 351 4 11 358 5 0 354 347 340
298 307 308 314 310 318 320 317 324 331 300 322 323 333 333 331 327 328 328 331 341 347 354 353 356 356 1 2 357 4 352 356 360 1 1 6 358 1 2 360 356 354 350 343 340
295 304 302 308 309 314 316 319 323 309 297 317 325 322 317 322 323 321 321 335 338 346 348 354 358 1 1 358 1 354 358 5 11 8 360 6 2 359 1 359 358 359 351 344 340
290 299 309 300 296 304 305 314 295 292 316 308 313 313 312 313 322 322 322 327 331 336 344 352 356 3 360 359 3 358 359 360 360 359 358 11 357 355 358 2 5 358 349 346 346
288 298 295 316 311 301 307 299 285 291 303 315 313 314 309 314 313 322 324 325 334 344 349 350 354 359 359 1 1 2 6 5 353 354 353 353 357 2 5 16 8 357 351 349 347
296 292 289 295 307 300 294 282 283 291 300 313 314 304 305 308 313 318 322 329 339 343 347 354 351 355 359 4 3 4 2 12 0 360 355 360 356 353 14 5 360 355 354 351 351
287 293 287 290 290 295 282 278 284 294 300 299 295 306 306 314 316 320 321 327 337 344 346 349 349 355 359 5 3 5 13 3 5 354 350 350 351 357 2 360 2 358 357 355 354
279 277 285 289 282 284 271 273 282 287 294 298 293 296 301 307 313 318 316 322 333 341 341 344 347 351 356 4 3 3 6 9 8 1 351 350 354 12 9 9 1 359 359 358 357
270 268 286 280 271 273 275 275 280 284 287 289 293 292 293 301 304 307 312 313 334 339 340 340 344 350 353 3 8 5 4 9 359 358 356 359 1 27 17 7 2 -0 1 2 1
266 272 275 272 262 264 274 277 280 279 280 286 291 293 297 295 298 300 308 317 325 327 338 344 342 346 350 1 359 360 5 8 8 5 0 7 5 24 351 344 358 1 5 5 6
263 262 265 263 266 265 269 273 273 277 279 282 292 293 294 290 294 300 302 309 313 317 326 334 336 341 341 347 352 353 357 3 5 1 3 342 302 301 307 327 341 4 10 11 12
256 258 260 261 258 260 262 269 264 270 278 281 288 286 286 286 290 290 297 301 304 312 317 324 327 335 334 328 336 328 330 346 336 341 352 341 343 307 304 333 352 11 15 16 17
250 253 259 259 255 253 260 259 262 268 272 276 275 287 283 278 285 295 295 295 301 303 309 320 322 331 332 343 349 346 331 329 309 310 288 283 284 286 307 17 13 18 20 20 21
253 254 254 256 255 252 255 257 261 264 269 272 270 281 280 280 290 296 297 300 302 305 303 315 322 332 333 337 339 355 23 30 20 15 1 354 342 5 10 8 19 22 23 24 25